Regional Weather Roundup
Issued by NWS

Home | Current Version | Previous Version | Text Only | Print | Product List | Glossary On
Versions: 1 2 3 4 5 6 7 8 9 10 11 12 13 14 15 16 17 18 19 20 21 22 23 24 25 26 27 28 29 30 31 32 33 34 35 36 37 38 39 40 41 42 43 44 45 46 47 48 49 50
000
ASUS43 KLSX 251607
RWRMO

WEATHER SUMMARY FOR MISSOURI
NATIONAL WEATHER SERVICE SPRINGFIELD MO
1100 AM CDT SAT APR 25 2015

NOTE: "FAIR" INDICATES FEW OR NO CLOUDS BELOW 12,000 FEET WITH NO
       SIGNIFICANT WEATHER AND/OR OBSTRUCTIONS TO VISIBILITY.
       CURRENT SKY AND/OR WEATHER CONDITIONS ARE NOT AVAILABLE FOR
       CHILLICOTHE AND FARMINGTON.

MOZ001>031-035>038-043-044-053-054-251700-
...NORTHERN AND WESTERN MISSOURI...

CITY           SKY/WX    TMP DP  RH WIND       PRES   REMARKS
KANSAS CTY INT CLOUDY    60  55  83 SW7       29.47R
KANSAS C DTWN  CLOUDY    62  54  74 W6        29.46R
LEE`S SUMMIT   CLOUDY    61  56  83 W6        29.47R
ST JOSEPH      CLOUDY    59  55  87 E9        29.49R
CHILLICOTHE      N/A     55  53  93 NE13      29.49R
KIRKSVILLE     LGT RAIN  52  52 100 E13       29.52R FOG

$$
MOZ066>068-077>081-088>096-101>105-251700-
...SOUTHWEST MISSOURI...

CITY           SKY/WX    TMP DP  RH WIND       PRES   REMARKS
SPRINGFIELD    SUNNY     69  55  60 W17G30    29.53R
JOPLIN         MOSUNNY   68  54  60 W16G24    29.57R

$$
MOZ032>034-039>042-045>050-055>058-069>072-251700-
...CENTRAL MISSOURI...

CITY           SKY/WX    TMP DP  RH WIND       PRES   REMARKS
COLUMBIA       CLOUDY    65  59  81 S7        29.47S
JEFFERSON CITY CLOUDY    67  57  70 SW3       29.46F
ROLLA          LGT RAIN  66  56  70 SW15G21   29.47F
SEDALIA        CLOUDY    66  56  70 SW16      29.47R
WHITEMAN AFB   PTSUNNY   64  59  84 SW13      29.45R
WARRENSBURG    MOSUNNY   64  54  68 W10       29.47R
OSAGE BEACH    CLOUDY    70  55  60 SW17G30   29.48R

$$
MOZ051-052-059>065-251700-
...EAST CENTRAL MISSOURI...

CITY           SKY/WX    TMP DP  RH WIND       PRES   REMARKS
ST LOUIS INTL  CLOUDY    62  57  83 SE8       29.52F
SPIRIT OF STL  CLOUDY    61  56  83 CALM      29.51F
ST CHARLES     CLOUDY    60  56  86 SE7       29.51F

$$
MOZ072>076-082>087-097>100-106>115-251700-
...SOUTH CENTRAL AND SOUTHEAST MISSOURI...

CITY           SKY/WX    TMP DP  RH WIND       PRES   REMARKS
CAPE GIRARDEAU CLOUDY    66  62  87 SW16G22   29.57F
FARMINGTON     CLOUDY    63  57  82 S17       29.55F
POPLAR BLUFF   CLOUDY    68  60  75 SW13      29.56S
WEST PLAINS    SUNNY     72  55  55 SW14G26   29.54F

$$



USA.gov is the U.S. government's official web portal to all federal, state and local government web resources and services.